Private Wetterstation Wechselburg
Wetterdaten: Mittwoch, 11.12.2019
Datum Zeit Temp. +2m Bodentemp. Temp.+5cm Temp. Wind Windchill X Diff Temp. Feuchte +2m Feuchte +5cm Luftdruck Regen Wind Richtung Richtung Sonnenschein Taupunkt Windchill Windben
11.12.2019 00:00 0,7 C 5,8 C -0,3 C 0,2 C -0,7 C 0,0 C 81 % 84 % 1023,2 hPa 0,0 l/m 0,5 km/h (0 Bft) O-NO 67 0 min -2,2 C -0,7 C 1,8 km/h (1 Bft)
11.12.2019 00:05 0,7 C 5,8 C -0,5 C 0,2 C -0,8 C 0,0 C 81 % 84 % 1023,2 hPa 0,0 l/m 0,5 km/h (0 Bft) S-SO 157 0 min -2,2 C -0,8 C 0,0 km/h (0 Bft)
11.12.2019 00:10 0,7 C 5,8 C -0,5 C 0,2 C -0,8 C 0,0 C 81 % 84 % 1023,2 hPa 0,0 l/m 0,3 km/h (0 Bft) O-NO 67 0 min -2,2 C -0,8 C 0,0 km/h (0 Bft)
11.12.2019 00:15 0,7 C 5,8 C -0,7 C 0,1 C -1,0 C 0,0 C 80 % 84 % 1023,2 hPa 0,0 l/m 0,3 km/h (0 Bft) S-SO 157 0 min -2,3 C -1,0 C 3,9 km/h (1 Bft)
11.12.2019 00:20 0,5 C 5,9 C -0,9 C 0,0 C -1,0 C 0,0 C 80 % 85 % 1022,8 hPa 0,0 l/m 0,8 km/h (0 Bft) S-SW 202 0 min -2,5 C -1,0 C 2,4 km/h (1 Bft)
11.12.2019 00:25 0,5 C 5,9 C -0,9 C 0,0 C -1,0 C 0,0 C 80 % 85 % 1022,8 hPa 0,0 l/m 1,0 km/h (0 Bft) S-SO 157 0 min -2,5 C -1,0 C 0,0 km/h (0 Bft)
11.12.2019 00:30 0,4 C 5,9 C -1,2 C -0,2 C -1,3 C 0,0 C 80 % 85 % 1022,8 hPa 0,0 l/m 0,2 km/h (0 Bft) NO 45 0 min -2,6 C -1,3 C 0,0 km/h (0 Bft)
11.12.2019 00:35 0,3 C 5,8 C -1,5 C -0,3 C -1,5 C 0,0 C 79 % 84 % 1022,8 hPa 0,0 l/m 0,0 km/h (0 Bft) N-NO 22 0 min -2,9 C -1,5 C 0,0 km/h (0 Bft)
11.12.2019 00:40 0,0 C 5,8 C -1,4 C -0,5 C -1,6 C 0,0 C 80 % 85 % 1022,4 hPa 0,0 l/m 0,2 km/h (0 Bft) N-NO 22 0 min -3,0 C -1,6 C 0,0 km/h (0 Bft)
11.12.2019 00:45 0,0 C 5,8 C -1,2 C -0,5 C -1,5 C 0,0 C 80 % 85 % 1022,4 hPa 0,0 l/m 0,3 km/h (0 Bft) N-NO 22 0 min -3,0 C -1,5 C 0,0 km/h (0 Bft)
11.12.2019 00:50 0,0 C 5,8 C -1,3 C -0,5 C -1,6 C 0,0 C 80 % 85 % 1022,4 hPa 0,0 l/m 0,2 km/h (0 Bft) N-NO 22 0 min -3,0 C -1,6 C 0,0 km/h (0 Bft)
11.12.2019 00:55 0,1 C 5,8 C -1,3 C -0,5 C -1,7 C 0,0 C 80 % 85 % 1022,4 hPa 0,0 l/m 0,0 km/h (0 Bft) NW 315 0 min -2,9 C -1,7 C 0,0 km/h (0 Bft)
11.12.2019 01:00 -0,1 C 5,8 C -1,3 C -0,7 C -1,8 C 0,0 C 80 % 85 % 1022,4 hPa 0,0 l/m 0,0 km/h (0 Bft) S-SO 157 0 min -3,1 C -1,8 C 0,0 km/h (0 Bft)
11.12.2019 01:05 -0,1 C 5,8 C -1,3 C -0,7 C -1,8 C 0,0 C 80 % 85 % 1022,4 hPa 0,0 l/m 0,0 km/h (0 Bft) NO 45 0 min -3,1 C -1,8 C 0,0 km/h (0 Bft)
11.12.2019 01:10 -0,1 C 5,8 C -1,2 C -0,6 C -1,5 C 0,0 C 80 % 85 % 1022,4 hPa 0,0 l/m 0,2 km/h (0 Bft) O-NO 67 0 min -3,1 C -1,5 C 0,0 km/h (0 Bft)
11.12.2019 01:15 0,1 C 5,7 C -1,0 C -0,4 C -1,5 C 0,0 C 80 % 85 % 1022,4 hPa 0,0 l/m 0,3 km/h (0 Bft) N-NW 337 0 min -2,9 C -1,5 C 0,0 km/h (0 Bft)
11.12.2019 01:20 0,2 C 5,7 C -0,9 C -0,3 C -1,2 C 0,0 C 80 % 84 % 1021,8 hPa 0,0 l/m 0,6 km/h (0 Bft) O-NO 67 0 min -2,8 C -1,2 C 2,7 km/h (1 Bft)
11.12.2019 01:25 0,3 C 5,7 C -0,7 C -0,1 C -1,0 C 0,0 C 80 % 84 % 1021,8 hPa 0,0 l/m 1,0 km/h (0 Bft) NW 315 0 min -2,7 C -1,0 C 5,0 km/h (1 Bft)
11.12.2019 01:30 0,5 C 5,7 C -0,5 C 0,1 C -0,8 C 0,0 C 80 % 84 % 1021,8 hPa 0,0 l/m 1,4 km/h (1 Bft) NW 315 0 min -2,5 C -0,8 C 0,0 km/h (0 Bft)
11.12.2019 01:35 0,7 C 5,6 C -0,4 C 0,3 C -0,6 C 0,0 C 80 % 83 % 1021,8 hPa 0,0 l/m 1,1 km/h (1 Bft) O-NO 67 0 min -2,3 C -0,6 C 5,3 km/h (1 Bft)
11.12.2019 01:40 0,8 C 5,6 C -0,4 C 0,4 C -0,5 C 0,0 C 79 % 83 % 1021,4 hPa 0,0 l/m 0,6 km/h (0 Bft) S 180 0 min -2,4 C -0,5 C 0,0 km/h (0 Bft)
11.12.2019 01:45 0,7 C 5,6 C -0,5 C 0,3 C -0,6 C 0,0 C 79 % 83 % 1021,4 hPa 0,0 l/m 1,1 km/h (1 Bft) SO 135 0 min -2,5 C -0,6 C 8,2 km/h (2 Bft)
11.12.2019 01:50 0,8 C 5,7 C -0,5 C 0,4 C -0,5 C 0,0 C 78 % 83 % 1021,4 hPa 0,0 l/m 1,9 km/h (1 Bft) W-SW 247 0 min -2,6 C -0,5 C 2,1 km/h (1 Bft)
11.12.2019 01:55 0,9 C 5,7 C -0,6 C 0,3 C -0,8 C 0,0 C 78 % 83 % 1021,4 hPa 0,0 l/m 2,6 km/h (1 Bft) S-SO 157 0 min -2,5 C -0,8 C 4,3 km/h (1 Bft)
11.12.2019 02:00 0,7 C 5,7 C -0,7 C 0,2 C -0,8 C 0,0 C 77 % 83 % 1021,2 hPa 0,0 l/m 1,3 km/h (1 Bft) SW 225 0 min -2,9 C -0,8 C 1,6 km/h (1 Bft)
11.12.2019 02:05 0,7 C 5,7 C -0,6 C 0,2 C -0,8 C 0,0 C 77 % 83 % 1021,2 hPa 0,0 l/m 1,0 km/h (0 Bft) S-SW 202 0 min -2,9 C -0,8 C 2,4 km/h (1 Bft)
11.12.2019 02:10 0,8 C 5,7 C -0,7 C 0,3 C -0,7 C 0,0 C 77 % 83 % 1021,2 hPa 0,0 l/m 2,1 km/h (1 Bft) S 180 0 min -2,8 C -0,7 C 3,9 km/h (1 Bft)
11.12.2019 02:15 0,8 C 5,7 C -0,8 C 0,3 C -0,7 C 0,0 C 77 % 83 % 1021,2 hPa 0,0 l/m 2,3 km/h (1 Bft) S-SO 157 0 min -2,8 C -0,7 C 1,8 km/h (1 Bft)
11.12.2019 02:20 0,6 C 5,7 C -0,9 C 0,1 C -0,9 C 0,0 C 76 % 83 % 1021,0 hPa 0,0 l/m 0,8 km/h (0 Bft) N-NO 22 0 min -3,1 C -0,9 C 0,0 km/h (0 Bft)
11.12.2019 02:25 0,5 C 5,5 C -1,0 C 0,0 C -1,1 C 0,0 C 76 % 83 % 1021,0 hPa 0,0 l/m 0,2 km/h (0 Bft) S 180 0 min -3,2 C -1,1 C 2,3 km/h (1 Bft)
11.12.2019 02:30 0,4 C 5,5 C -1,0 C -0,1 C -1,1 C 0,0 C 76 % 83 % 1021,0 hPa 0,0 l/m 0,3 km/h (0 Bft) O-NO 67 0 min -3,3 C -1,1 C 0,0 km/h (0 Bft)
11.12.2019 02:35 0,4 C 5,7 C -1,2 C -0,1 C -1,1 C 0,0 C 76 % 83 % 1021,0 hPa 0,0 l/m 0,3 km/h (0 Bft) O-NO 67 0 min -3,3 C -1,1 C 0,0 km/h (0 Bft)
11.12.2019 02:40 0,3 C 5,5 C -1,0 C -0,2 C -1,2 C 0,0 C 76 % 83 % 1020,8 hPa 0,0 l/m 0,3 km/h (0 Bft) O 90 0 min -3,4 C -1,2 C 1,9 km/h (1 Bft)
11.12.2019 02:45 0,3 C 5,5 C -1,1 C -0,2 C -1,2 C 0,0 C 76 % 83 % 1020,8 hPa 0,0 l/m 0,3 km/h (0 Bft) O-NO 67 0 min -3,4 C -1,2 C 0,0 km/h (0 Bft)
11.12.2019 02:50 0,3 C 5,5 C -1,3 C -0,3 C -1,4 C 0,0 C 77 % 83 % 1020,8 hPa 0,0 l/m 0,3 km/h (0 Bft) O-NO 67 0 min -3,2 C -1,4 C 1,9 km/h (1 Bft)
11.12.2019 02:55 0,1 C 5,5 C -1,5 C -0,4 C -1,5 C 0,0 C 77 % 83 % 1020,8 hPa 0,0 l/m 0,3 km/h (0 Bft) NO 45 0 min -3,4 C -1,5 C 0,0 km/h (0 Bft)
11.12.2019 03:00 -0,1 C 5,5 C -1,7 C -0,6 C -1,6 C 0,0 C 77 % 83 % 1020,1 hPa 0,0 l/m 0,6 km/h (0 Bft) NO 45 0 min -3,6 C -1,6 C 0,0 km/h (0 Bft)
11.12.2019 03:05 -0,1 C 5,5 C -1,8 C -0,7 C -1,8 C 0,0 C 77 % 84 % 1020,1 hPa 0,0 l/m 0,5 km/h (0 Bft) NO 45 0 min -3,6 C -1,8 C 0,0 km/h (0 Bft)
11.12.2019 03:10 -0,4 C 5,6 C -1,9 C -0,9 C -2,0 C 0,0 C 77 % 84 % 1020,1 hPa 0,0 l/m 0,2 km/h (0 Bft) NO 45 0 min -3,9 C -2,0 C 0,0 km/h (0 Bft)
11.12.2019 03:15 -0,5 C 5,6 C -2,0 C -1,0 C -2,1 C 0,0 C 77 % 84 % 1020,1 hPa 0,0 l/m 0,0 km/h (0 Bft) NO 45 0 min -4,0 C -2,1 C 0,0 km/h (0 Bft)
11.12.2019 03:20 -0,5 C 5,6 C -2,0 C -1,1 C -2,2 C 0,0 C 78 % 84 % 1020,5 hPa 0,0 l/m 0,2 km/h (0 Bft) NO 45 0 min -3,9 C -2,2 C 1,8 km/h (1 Bft)
11.12.2019 03:25 -0,5 C 5,6 C -2,0 C -1,0 C -2,1 C 0,0 C 78 % 84 % 1020,5 hPa 0,0 l/m 0,2 km/h (0 Bft) N-NO 22 0 min -3,9 C -2,1 C 0,0 km/h (0 Bft)
11.12.2019 03:30 -0,5 C 5,6 C -2,0 C -1,0 C -2,0 C 0,0 C 79 % 84 % 1020,5 hPa 0,0 l/m 0,2 km/h (0 Bft) N-NO 22 0 min -3,7 C -2,0 C 0,0 km/h (0 Bft)
11.12.2019 03:35 -0,5 C 5,6 C -1,9 C -1,0 C -1,9 C 0,0 C 79 % 85 % 1020,5 hPa 0,0 l/m 0,0 km/h (0 Bft) N-NO 22 0 min -3,7 C -1,9 C 0,0 km/h (0 Bft)
11.12.2019 03:40 -0,5 C 5,6 C -1,8 C -0,9 C -1,8 C 0,0 C 79 % 85 % 1020,5 hPa 0,0 l/m 0,0 km/h (0 Bft) N-NO 22 0 min -3,7 C -1,8 C 0,0 km/h (0 Bft)
11.12.2019 03:45 -0,5 C 5,6 C -1,8 C -0,9 C -1,6 C 0,0 C 79 % 85 % 1020,5 hPa 0,0 l/m 0,0 km/h (0 Bft) NO 45 0 min -3,7 C -1,6 C 0,0 km/h (0 Bft)
11.12.2019 03:50 -0,6 C 5,6 C -1,7 C -0,9 C -1,5 C 0,0 C 79 % 85 % 1020,5 hPa 0,0 l/m 0,3 km/h (0 Bft) O-NO 67 0 min -3,8 C -1,5 C 0,0 km/h (0 Bft)
11.12.2019 03:55 -0,6 C 5,6 C -1,6 C -0,9 C -1,4 C 0,0 C 79 % 85 % 1020,5 hPa 0,0 l/m 0,2 km/h (0 Bft) NO 45 0 min -3,8 C -1,4 C 0,0 km/h (0 Bft)
11.12.2019 04:00 -0,5 C 5,6 C -1,3 C -0,7 C -1,2 C 0,0 C 80 % 85 % 1019,5 hPa 0,0 l/m 0,0 km/h (0 Bft) O-NO 67 0 min -3,5 C -1,2 C 0,0 km/h (0 Bft)
11.12.2019 04:05 -0,3 C 5,6 C -1,3 C -0,6 C -1,1 C 0,0 C 80 % 85 % 1019,5 hPa 0,0 l/m 0,0 km/h (0 Bft) NO 45 0 min -3,3 C -1,1 C 0,0 km/h (0 Bft)
11.12.2019 04:10 -0,5 C 5,6 C -1,3 C -0,7 C -1,2 C 0,0 C 80 % 85 % 1019,5 hPa 0,0 l/m 0,0 km/h (0 Bft) NO 45 0 min -3,5 C -1,2 C 0,0 km/h (0 Bft)
11.12.2019 04:15 -0,5 C 5,5 C -1,3 C -0,7 C -1,2 C 0,0 C 80 % 85 % 1019,5 hPa 0,0 l/m 0,0 km/h (0 Bft) NO 45 0 min -3,5 C -1,2 C 0,0 km/h (0 Bft)
11.12.2019 04:20 -0,5 C 5,6 C -1,2 C -0,7 C -1,0 C 0,0 C 80 % 85 % 1019,8 hPa 0,0 l/m 0,2 km/h (0 Bft) O-NO 67 0 min -3,5 C -1,0 C 0,0 km/h (0 Bft)
11.12.2019 04:25 -0,4 C 5,6 C -1,1 C -0,6 C -1,0 C 0,0 C 80 % 85 % 1019,8 hPa 0,0 l/m 0,2 km/h (0 Bft) O-NO 67 0 min -3,4 C -1,0 C 0,0 km/h (0 Bft)
11.12.2019 04:30 -0,3 C 5,5 C -1,1 C -0,5 C -1,0 C 0,0 C 80 % 85 % 1019,8 hPa 0,0 l/m 0,0 km/h (0 Bft) O-NO 67 0 min -3,3 C -1,0 C 0,0 km/h (0 Bft)
11.12.2019 04:35 -0,5 C 5,5 C -1,2 C -0,7 C -1,0 C 0,0 C 80 % 85 % 1019,8 hPa 0,0 l/m 0,0 km/h (0 Bft) NO 45 0 min -3,5 C -1,0 C 0,0 km/h (0 Bft)
11.12.2019 04:40 -0,5 C 5,5 C -1,1 C -0,7 C -1,0 C 0,0 C 80 % 85 % 1018,7 hPa 0,0 l/m 0,2 km/h (0 Bft) O-NO 67 0 min -3,5 C -1,0 C 0,0 km/h (0 Bft)
11.12.2019 04:45 -0,5 C 5,5 C -1,1 C -0,7 C -1,0 C 0,0 C 80 % 85 % 1018,7 hPa 0,0 l/m 0,3 km/h (0 Bft) NO 45 0 min -3,5 C -1,0 C 0,0 km/h (0 Bft)
11.12.2019 04:50 -0,5 C 5,5 C -1,2 C -0,7 C -1,0 C 0,0 C 80 % 85 % 1018,7 hPa 0,0 l/m 0,5 km/h (0 Bft) N-NW 337 0 min -3,5 C -1,0 C 0,0 km/h (0 Bft)
11.12.2019 04:55 -0,5 C 5,6 C -1,4 C -0,8 C -1,4 C 0,0 C 80 % 84 % 1018,7 hPa 0,0 l/m 0,3 km/h (0 Bft) N-NW 337 0 min -3,5 C -1,4 C 0,0 km/h (0 Bft)
11.12.2019 05:00 -0,8 C 5,5 C -1,7 C -1,1 C -1,7 C 0,0 C 80 % 85 % 1018,7 hPa 0,0 l/m 0,0 km/h (0 Bft) N 360 0 min -3,8 C -1,7 C 0,0 km/h (0 Bft)
11.12.2019 05:05 -0,9 C 5,5 C -1,6 C -1,2 C -1,7 C 0,0 C 80 % 85 % 1018,7 hPa 0,0 l/m 0,0 km/h (0 Bft) O-NO 67 0 min -3,9 C -1,7 C 0,0 km/h (0 Bft)
11.12.2019 05:10 -0,9 C 5,5 C -1,5 C -1,1 C -1,6 C 0,0 C 80 % 85 % 1018,7 hPa 0,0 l/m 0,2 km/h (0 Bft) O 90 0 min -3,9 C -1,6 C 0,0 km/h (0 Bft)
11.12.2019 05:15 -0,9 C 5,5 C -1,5 C -1,1 C -1,6 C 0,0 C 80 % 85 % 1018,7 hPa 0,0 l/m 0,2 km/h (0 Bft) N-NO 22 0 min -3,9 C -1,6 C 0,0 km/h (0 Bft)
11.12.2019 05:20 -0,9 C 5,5 C -1,4 C -1,2 C -1,7 C 0,0 C 81 % 85 % 1018,2 hPa 0,0 l/m 0,0 km/h (0 Bft) NO 45 0 min -3,7 C -1,7 C 0,0 km/h (0 Bft)
11.12.2019 05:25 -0,9 C 5,5 C -1,3 C -1,1 C -1,5 C 0,0 C 81 % 85 % 1018,2 hPa 0,0 l/m 0,0 km/h (0 Bft) N-NO 22 0 min -3,7 C -1,5 C 0,0 km/h (0 Bft)
11.12.2019 05:30 -0,7 C 5,5 C -1,2 C -0,9 C -1,3 C 0,0 C 81 % 85 % 1018,2 hPa 0,0 l/m 0,3 km/h (0 Bft) W 270 0 min -3,5 C -1,3 C 0,0 km/h (0 Bft)
11.12.2019 05:35 -0,8 C 5,5 C -1,1 C -0,9 C -1,2 C 0,0 C 81 % 85 % 1018,2 hPa 0,0 l/m 0,3 km/h (0 Bft) W 270 0 min -3,6 C -1,2 C 0,0 km/h (0 Bft)
11.12.2019 05:40 -0,8 C 5,5 C -1,1 C -0,9 C -1,1 C 0,0 C 81 % 85 % 1018,2 hPa 0,0 l/m 0,0 km/h (0 Bft) W 270 0 min -3,6 C -1,1 C 0,0 km/h (0 Bft)
11.12.2019 05:45 -0,8 C 5,5 C -1,0 C -0,9 C -1,0 C 0,0 C 81 % 85 % 1018,2 hPa 0,0 l/m 0,0 km/h (0 Bft) W 270 0 min -3,6 C -1,0 C 0,0 km/h (0 Bft)
11.12.2019 05:50 -0,8 C 5,5 C -0,9 C -0,8 C -0,9 C 0,0 C 82 % 85 % 1018,2 hPa 0,0 l/m 0,0 km/h (0 Bft) W 270 0 min -3,5 C -0,9 C 0,0 km/h (0 Bft)
11.12.2019 05:55 -0,8 C 5,5 C -0,9 C -0,8 C -0,8 C 0,0 C 82 % 85 % 1018,2 hPa 0,0 l/m 0,0 km/h (0 Bft) W 270 0 min -3,5 C -0,8 C 0,0 km/h (0 Bft)
11.12.2019 06:00 -0,7 C 5,4 C -0,9 C -0,7 C -0,8 C 0,0 C 82 % 85 % 1017,5 hPa 0,0 l/m 0,0 km/h (0 Bft) W 270 0 min -3,4 C -0,8 C 0,0 km/h (0 Bft)
11.12.2019 06:05 -0,7 C 5,5 C -0,9 C -0,7 C -0,8 C 0,0 C 82 % 85 % 1017,5 hPa 0,0 l/m 0,0 km/h (0 Bft) W 270 0 min -3,4 C -0,8 C 0,0 km/h (0 Bft)
11.12.2019 06:10 -0,7 C 5,5 C -0,9 C -0,8 C -1,0 C 0,0 C 82 % 85 % 1017,5 hPa 0,0 l/m 0,0 km/h (0 Bft) W-SW 247 0 min -3,4 C -1,0 C 0,0 km/h (0 Bft)
11.12.2019 06:15 -0,7 C 5,5 C -1,0 C -0,8 C -1,1 C 0,0 C 82 % 85 % 1017,5 hPa 0,0 l/m 0,0 km/h (0 Bft) W-SW 247 0 min -3,4 C -1,1 C 0,0 km/h (0 Bft)
11.12.2019 06:20 -0,8 C 5,5 C -1,2 C -1,0 C -1,4 C 0,0 C 82 % 85 % 1017,1 hPa 0,0 l/m 0,0 km/h (0 Bft) W-SW 247 0 min -3,5 C -1,4 C 0,0 km/h (0 Bft)
11.12.2019 06:25 -0,8 C 5,5 C -1,2 C -1,0 C -1,5 C 0,0 C 82 % 85 % 1017,1 hPa 0,0 l/m 0,0 km/h (0 Bft) W-SW 247 0 min -3,5 C -1,5 C 0,0 km/h (0 Bft)
11.12.2019 06:30 -0,9 C 5,5 C -1,3 C -1,2 C -1,7 C 0,0 C 82 % 85 % 1017,1 hPa 0,0 l/m 0,0 km/h (0 Bft) W-SW 247 0 min -3,6 C -1,7 C 0,0 km/h (0 Bft)
11.12.2019 06:35 -0,9 C 5,5 C -1,3 C -1,2 C -1,8 C 0,0 C 82 % 85 % 1017,1 hPa 0,0 l/m 0,0 km/h (0 Bft) W-SW 247 0 min -3,6 C -1,8 C 0,0 km/h (0 Bft)
11.12.2019 06:40 -0,9 C 5,4 C -1,3 C -1,2 C -1,9 C 0,0 C 82 % 85 % 1016,8 hPa 0,0 l/m 0,0 km/h (0 Bft) W-SW 247 0 min -3,6 C -1,9 C 0,0 km/h (0 Bft)
11.12.2019 06:45 -0,9 C 5,4 C -1,3 C -1,2 C -1,9 C 0,0 C 82 % 85 % 1016,8 hPa 0,0 l/m 0,0 km/h (0 Bft) W-SW 247 0 min -3,6 C -1,9 C 0,0 km/h (0 Bft)
11.12.2019 06:50 -1,0 C 5,4 C -1,4 C -1,3 C -1,9 C 0,0 C 82 % 85 % 1016,8 hPa 0,0 l/m 0,0 km/h (0 Bft) W-SW 247 0 min -3,7 C -1,9 C 0,0 km/h (0 Bft)
11.12.2019 06:55 -0,9 C 5,4 C -1,3 C -1,2 C -1,9 C 0,0 C 82 % 85 % 1016,8 hPa 0,0 l/m 0,0 km/h (0 Bft) W 270 0 min -3,6 C -1,9 C 0,0 km/h (0 Bft)
11.12.2019 07:00 -0,9 C 5,4 C -1,3 C -1,2 C -1,7 C 0,0 C 82 % 85 % 1016,8 hPa 0,0 l/m 0,0 km/h (0 Bft) O-NO 67 0 min -3,6 C -1,7 C 0,0 km/h (0 Bft)
11.12.2019 07:05 -0,9 C 5,4 C -1,3 C -1,1 C -1,5 C 0,0 C 83 % 85 % 1016,8 hPa 0,0 l/m 0,0 km/h (0 Bft) O-NO 67 0 min -3,4 C -1,5 C 0,0 km/h (0 Bft)
11.12.2019 07:10 -0,9 C 5,4 C -1,3 C -1,1 C -1,5 C 0,0 C 83 % 85 % 1016,8 hPa 0,0 l/m 0,0 km/h (0 Bft) O-NO 67 0 min -3,4 C -1,5 C 0,0 km/h (0 Bft)
11.12.2019 07:15 -0,9 C 5,4 C -1,2 C -1,1 C -1,5 C 0,0 C 83 % 85 % 1016,8 hPa 0,0 l/m 0,0 km/h (0 Bft) O-NO 67 0 min -3,4 C -1,5 C 0,0 km/h (0 Bft)
11.12.2019 07:20 -0,9 C 5,4 C -1,2 C -1,1 C -1,5 C 0,0 C 83 % 85 % 1016,8 hPa 0,0 l/m 0,0 km/h (0 Bft) O-NO 67 0 min -3,4 C -1,5 C 0,0 km/h (0 Bft)
11.12.2019 07:25 -0,9 C 5,4 C -1,2 C -1,1 C -1,4 C 0,0 C 83 % 85 % 1016,8 hPa 0,0 l/m 0,2 km/h (0 Bft) S-SW 202 0 min -3,4 C -1,4 C 0,0 km/h (0 Bft)
11.12.2019 07:30 -0,7 C 5,4 C -1,1 C -0,9 C -1,2 C 0,0 C 83 % 85 % 1016,8 hPa 0,0 l/m 0,2 km/h (0 Bft) S-SW 202 0 min -3,2 C -1,2 C 2,1 km/h (1 Bft)
11.12.2019 07:35 -0,8 C 5,4 C -1,1 C -0,9 C -1,2 C 0,0 C 83 % 85 % 1016,8 hPa 0,0 l/m 0,3 km/h (0 Bft) SW 225 0 min -3,3 C -1,2 C 0,0 km/h (0 Bft)
11.12.2019 07:40 -0,9 C 5,5 C -1,2 C -1,1 C -1,4 C 0,0 C 83 % 85 % 1017,0 hPa 0,0 l/m 0,5 km/h (0 Bft) SW 225 0 min -3,4 C -1,4 C 0,0 km/h (0 Bft)
11.12.2019 07:45 -0,9 C 5,5 C -1,2 C -1,1 C -1,5 C 0,0 C 83 % 86 % 1017,0 hPa 0,0 l/m 0,2 km/h (0 Bft) SW 225 0 min -3,4 C -1,5 C 0,0 km/h (0 Bft)
11.12.2019 07:50 -0,9 C 5,4 C -1,2 C -1,1 C -1,5 C 0,0 C 83 % 86 % 1017,0 hPa 0,0 l/m 0,0 km/h (0 Bft) O-SO 112 0 min -3,4 C -1,5 C 0,0 km/h (0 Bft)
11.12.2019 07:55 -0,9 C 5,5 C -1,1 C -1,0 C -1,3 C 0,0 C 84 % 86 % 1017,0 hPa 0,0 l/m 0,2 km/h (0 Bft) O 90 0 min -3,3 C -1,3 C 0,0 km/h (0 Bft)
11.12.2019 08:00 -0,9 C 5,4 C -1,0 C -1,0 C -1,1 C 0,0 C 84 % 86 % 1017,0 hPa 0,0 l/m 0,2 km/h (0 Bft) O 90 0 min -3,3 C -1,1 C 0,0 km/h (0 Bft)
11.12.2019 08:05 -0,9 C 5,4 C -1,0 C -0,9 C -1,0 C 0,0 C 84 % 86 % 1017,0 hPa 0,0 l/m 0,0 km/h (0 Bft) O 90 0 min -3,3 C -1,0 C 0,0 km/h (0 Bft)
11.12.2019 08:10 -0,7 C 5,4 C -0,9 C -0,8 C -0,9 C 0,0 C 84 % 86 % 1017,0 hPa 0,0 l/m 0,0 km/h (0 Bft) O 90 0 min -3,1 C -0,9 C 0,0 km/h (0 Bft)
11.12.2019 08:15 -0,8 C 5,4 C -0,9 C -0,8 C -0,8 C 0,0 C 84 % 86 % 1017,0 hPa 0,0 l/m 0,0 km/h (0 Bft) O 90 0 min -3,2 C -0,8 C 0,0 km/h (0 Bft)
11.12.2019 08:20 -0,7 C 5,4 C -0,7 C -0,6 C -0,6 C 0,1 C 84 % 86 % 1017,4 hPa 0,0 l/m 0,0 km/h (0 Bft) O 90 0 min -3,1 C -0,6 C 0,0 km/h (0 Bft)
11.12.2019 08:25 -0,7 C 5,4 C -0,6 C -0,5 C -0,5 C 0,2 C 84 % 85 % 1017,4 hPa 0,0 l/m 0,0 km/h (0 Bft) O 90 0 min -3,1 C -0,5 C 0,0 km/h (0 Bft)
11.12.2019 08:30 -0,5 C 5,4 C -0,5 C -0,4 C -0,4 C 0,1 C 84 % 85 % 1017,4 hPa 0,0 l/m 0,0 km/h (0 Bft) O 90 0 min -2,9 C -0,4 C 0,0 km/h (0 Bft)
11.12.2019 08:35 -0,5 C 5,4 C -0,5 C -0,3 C -0,3 C 0,2 C 84 % 85 % 1017,4 hPa 0,0 l/m 0,2 km/h (0 Bft) SW 225 0 min -2,9 C -0,3 C 0,0 km/h (0 Bft)
11.12.2019 08:40 -0,5 C 5,3 C -0,4 C -0,1 C -0,1 C 0,4 C 84 % 85 % 1016,9 hPa 0,0 l/m 0,2 km/h (0 Bft) SW 225 0 min -2,9 C -0,1 C 0,0 km/h (0 Bft)
11.12.2019 08:45 -0,5 C 5,3 C -0,3 C -0,1 C -0,1 C 0,4 C 84 % 85 % 1016,9 hPa 0,0 l/m 0,0 km/h (0 Bft) SW 225 0 min -2,9 C -0,1 C 0,0 km/h (0 Bft)
11.12.2019 08:50 -0,3 C 5,3 C -0,3 C 0,1 C 0,1 C 0,4 C 84 % 85 % 1016,9 hPa 0,0 l/m 0,2 km/h (0 Bft) SW 225 0 min -2,7 C 0,1 C 0,0 km/h (0 Bft)
11.12.2019 08:55 -0,4 C 5,3 C -0,2 C 0,2 C 0,2 C 0,6 C 84 % 85 % 1016,9 hPa 0,0 l/m 0,3 km/h (0 Bft) S 180 0 min -2,8 C 0,2 C 0,0 km/h (0 Bft)
11.12.2019 09:00 -0,3 C 5,2 C -0,1 C 0,2 C 0,2 C 0,5 C 84 % 85 % 1017,1 hPa 0,0 l/m 0,2 km/h (0 Bft) SO 135 0 min -2,7 C 0,2 C 0,0 km/h (0 Bft)
11.12.2019 09:05 -0,1 C 5,3 C 0,0 C 0,4 C 0,4 C 0,5 C 84 % 85 % 1017,1 hPa 0,0 l/m 0,2 km/h (0 Bft) NW 315 0 min -2,5 C 0,4 C 2,3 km/h (1 Bft)
11.12.2019 09:10 -0,1 C 5,3 C 0,0 C 0,4 C 0,4 C 0,5 C 84 % 85 % 1017,1 hPa 0,0 l/m 0,6 km/h (0 Bft) W-SW 247 0 min -2,5 C 0,4 C 0,0 km/h (0 Bft)
11.12.2019 09:15 -0,1 C 5,2 C 0,0 C 0,4 C 0,4 C 0,5 C 84 % 85 % 1017,1 hPa 0,0 l/m 0,6 km/h (0 Bft) O-NO 67 0 min -2,5 C 0,4 C 0,0 km/h (0 Bft)
11.12.2019 09:20 -0,1 C 5,2 C 0,3 C 0,7 C 0,7 C 0,8 C 84 % 85 % 1016,9 hPa 0,0 l/m 0,0 km/h (0 Bft) O-NO 67 0 min -2,5 C 0,7 C 0,0 km/h (0 Bft)
11.12.2019 09:25 0,1 C 5,2 C 0,4 C 0,9 C 0,9 C 0,8 C 85 % 85 % 1016,9 hPa 0,0 l/m 0,2 km/h (0 Bft) W-SW 247 0 min -2,1 C 0,9 C 0,0 km/h (0 Bft)
11.12.2019 09:30 0,1 C 5,2 C 0,4 C 1,0 C 1,0 C 0,9 C 85 % 85 % 1016,9 hPa 0,0 l/m 0,2 km/h (0 Bft) W-SW 247 0 min -2,1 C 1,0 C 0,0 km/h (0 Bft)
11.12.2019 09:35 0,3 C 5,2 C 0,4 C 1,1 C 1,1 C 0,8 C 85 % 85 % 1016,9 hPa 0,0 l/m 0,0 km/h (0 Bft) N 360 0 min -1,9 C 1,1 C 0,0 km/h (0 Bft)
11.12.2019 09:40 0,4 C 5,2 C 0,6 C 1,3 C 1,3 C 0,9 C 85 % 85 % 1016,9 hPa 0,0 l/m 0,0 km/h (0 Bft) N 360 0 min -1,8 C 1,3 C 0,0 km/h (0 Bft)
11.12.2019 09:45 0,4 C 5,2 C 0,6 C 1,4 C 1,4 C 1,0 C 85 % 85 % 1016,9 hPa 0,0 l/m 0,0 km/h (0 Bft) N 360 0 min -1,8 C 1,4 C 0,0 km/h (0 Bft)
11.12.2019 09:50 0,6 C 5,2 C 0,7 C 1,7 C 1,7 C 1,1 C 85 % 85 % 1016,9 hPa 0,0 l/m 0,0 km/h (0 Bft) N-NW 337 0 min -1,6 C 1,7 C 0,0 km/h (0 Bft)
11.12.2019 09:55 0,7 C 5,1 C 0,9 C 1,8 C 1,8 C 1,1 C 85 % 84 % 1016,9 hPa 0,0 l/m 0,0 km/h (0 Bft) N 360 0 min -1,5 C 1,8 C 0,0 km/h (0 Bft)
11.12.2019 10:00 0,8 C 5,1 C 1,2 C 2,1 C 2,1 C 1,3 C 84 % 83 % 1016,7 hPa 0,0 l/m 0,2 km/h (0 Bft) O-NO 67 0 min -1,6 C 2,1 C 0,0 km/h (0 Bft)
11.12.2019 10:05 1,1 C 5,1 C 1,5 C 2,3 C 2,3 C 1,2 C 84 % 82 % 1016,7 hPa 0,0 l/m 0,2 km/h (0 Bft) O-NO 67 0 min -1,3 C 2,3 C 0,0 km/h (0 Bft)
11.12.2019 10:10 1,1 C 5,1 C 1,5 C 2,5 C 2,5 C 1,4 C 83 % 82 % 1016,7 hPa 0,0 l/m 0,0 km/h (0 Bft) N-NO 22 0 min -1,5 C 2,5 C 0,0 km/h (0 Bft)
11.12.2019 10:15 1,2 C 5,1 C 1,6 C 2,6 C 2,6 C 1,4 C 83 % 82 % 1016,7 hPa 0,0 l/m 0,0 km/h (0 Bft) O-NO 67 0 min -1,4 C 2,6 C 0,0 km/h (0 Bft)
11.12.2019 10:20 1,2 C 5,1 C 1,5 C 2,7 C 2,7 C 1,5 C 83 % 83 % 1016,4 hPa 0,0 l/m 0,0 km/h (0 Bft) O-NO 67 0 min -1,4 C 2,7 C 0,0 km/h (0 Bft)
11.12.2019 10:25 1,3 C 5,1 C 1,5 C 2,7 C 2,7 C 1,4 C 83 % 83 % 1016,4 hPa 0,0 l/m 0,0 km/h (0 Bft) S-SO 157 0 min -1,3 C 2,7 C 0,0 km/h (0 Bft)
11.12.2019 10:30 1,5 C 5,1 C 1,5 C 2,8 C 2,8 C 1,3 C 82 % 83 % 1016,4 hPa 0,0 l/m 0,0 km/h (0 Bft) S-SO 157 0 min -1,2 C 2,8 C 0,0 km/h (0 Bft)
11.12.2019 10:35 1,4 C 5,1 C 1,6 C 2,8 C 2,8 C 1,4 C 82 % 83 % 1016,4 hPa 0,0 l/m 0,0 km/h (0 Bft) SO 135 0 min -1,3 C 2,8 C 0,0 km/h (0 Bft)
11.12.2019 10:40 1,7 C 5,1 C 1,8 C 3,0 C 3,0 C 1,3 C 81 % 81 % 1016,4 hPa 0,0 l/m 0,0 km/h (0 Bft) O-NO 67 0 min -1,2 C 3,0 C 0,0 km/h (0 Bft)
11.12.2019 10:45 1,7 C 5,1 C 2,0 C 3,1 C 3,1 C 1,4 C 81 % 80 % 1016,4 hPa 0,0 l/m 0,0 km/h (0 Bft) O-NO 67 0 min -1,2 C 3,1 C 0,0 km/h (0 Bft)
11.12.2019 10:50 1,9 C 5,0 C 2,2 C 3,1 C 3,1 C 1,2 C 80 % 78 % 1016,4 hPa 0,0 l/m 0,2 km/h (0 Bft) O 90 0 min -1,2 C 3,1 C 1,8 km/h (1 Bft)
11.12.2019 10:55 2,0 C 5,0 C 2,3 C 3,2 C 3,2 C 1,2 C 79 % 78 % 1016,4 hPa 0,0 l/m 0,5 km/h (0 Bft) NO 45 0 min -1,2 C 3,2 C 2,9 km/h (1 Bft)
11.12.2019 11:00 2,2 C 5,0 C 2,3 C 3,4 C 3,4 C 1,2 C 79 % 77 % 1015,7 hPa 0,0 l/m 0,3 km/h (0 Bft) O 90 0 min -1,1 C 3,4 C 0,0 km/h (0 Bft)
11.12.2019 11:05 2,3 C 5,0 C 2,4 C 3,5 C 3,5 C 1,2 C 78 % 78 % 1015,7 hPa 0,0 l/m 0,3 km/h (0 Bft) O-SO 112 0 min -1,1 C 3,5 C 1,8 km/h (1 Bft)
11.12.2019 11:10 2,5 C 5,0 C 2,5 C 3,7 C 3,7 C 1,2 C 78 % 77 % 1015,7 hPa 0,0 l/m 0,2 km/h (0 Bft) SW 225 0 min -0,9 C 3,7 C 0,0 km/h (0 Bft)
11.12.2019 11:15 2,5 C 5,0 C 2,6 C 4,1 C 4,1 C 1,6 C 77 % 77 % 1015,7 hPa 0,0 l/m 0,3 km/h (0 Bft) S-SO 157 0 min -1,1 C 4,1 C 0,0 km/h (0 Bft)
11.12.2019 11:20 2,7 C 5,0 C 2,7 C 4,5 C 4,5 C 1,8 C 77 % 78 % 1015,4 hPa 0,0 l/m 0,2 km/h (0 Bft) S-SO 157 0 min -0,9 C 4,5 C 0,0 km/h (0 Bft)
11.12.2019 11:25 2,7 C 5,0 C 2,8 C 5,0 C 5,0 C 2,3 C 76 % 77 % 1015,4 hPa 0,0 l/m 0,0 km/h (0 Bft) S-SO 157 0 min -1,1 C 5,0 C 0,0 km/h (0 Bft)
11.12.2019 11:30 2,9 C 5,0 C 3,1 C 5,3 C 5,3 C 2,4 C 75 % 76 % 1015,4 hPa 0,0 l/m 0,3 km/h (0 Bft) O-NO 67 0 min -1,1 C 5,3 C 1,6 km/h (1 Bft)
11.12.2019 11:35 3,1 C 5,0 C 3,1 C 5,3 C 5,3 C 2,2 C 75 % 75 % 1015,4 hPa 0,0 l/m 0,5 km/h (0 Bft) O 90 0 min -0,9 C 5,3 C 2,1 km/h (1 Bft)
11.12.2019 11:40 3,1 C 5,0 C 3,3 C 5,5 C 5,5 C 2,4 C 75 % 76 % 1014,9 hPa 0,0 l/m 0,3 km/h (0 Bft) O 90 0 min -0,9 C 5,5 C 0,0 km/h (0 Bft)
11.12.2019 11:45 3,2 C 5,0 C 3,3 C 5,6 C 5,6 C 2,4 C 75 % 76 % 1014,9 hPa 0,0 l/m 0,6 km/h (0 Bft) O-SO 112 0 min -0,8 C 5,6 C 2,6 km/h (1 Bft)
11.12.2019 11:50 3,4 C 5,0 C 3,4 C 5,7 C 5,7 C 2,3 C 74 % 76 % 1014,9 hPa 0,0 l/m 0,6 km/h (0 Bft) SO 135 0 min -0,8 C 5,7 C 0,0 km/h (0 Bft)
11.12.2019 11:55 3,4 C 5,0 C 3,5 C 5,8 C 5,8 C 2,4 C 74 % 76 % 1014,9 hPa 0,0 l/m 0,5 km/h (0 Bft) N-NO 22 0 min -0,8 C 5,8 C 0,0 km/h (0 Bft)
11.12.2019 12:00 3,7 C 5,0 C 3,5 C 5,8 C 5,8 C 2,1 C 73 % 76 % 1014,4 hPa 0,0 l/m 0,2 km/h (0 Bft) O-SO 112 0 min -0,7 C 5,8 C 0,0 km/h (0 Bft)
11.12.2019 12:05 3,6 C 5,0 C 3,5 C 5,8 C 5,8 C 2,2 C 73 % 76 % 1014,4 hPa 0,0 l/m 0,2 km/h (0 Bft) O-SO 112 0 min -0,8 C 5,8 C 0,0 km/h (0 Bft)
11.12.2019 12:10 3,8 C 5,0 C 3,7 C 5,8 C 5,8 C 2,0 C 72 % 75 % 1014,4 hPa 0,0 l/m 0,2 km/h (0 Bft) O-NO 67 0 min -0,8 C 5,8 C 0,0 km/h (0 Bft)
11.12.2019 12:15 4,0 C 5,0 C 3,8 C 5,9 C 5,9 C 1,9 C 72 % 73 % 1014,4 hPa 0,0 l/m 0,3 km/h (0 Bft) O-NO 67 0 min -0,6 C 5,9 C 2,9 km/h (1 Bft)
11.12.2019 12:20 4,0 C 5,0 C 4,0 C 6,1 C 6,1 C 2,1 C 71 % 73 % 1014,1 hPa 0,0 l/m 0,6 km/h (0 Bft) O-SO 112 0 min -0,8 C 6,1 C 0,0 km/h (0 Bft)
11.12.2019 12:25 4,1 C 5,0 C 4,1 C 6,1 C 6,1 C 2,0 C 71 % 72 % 1014,1 hPa 0,0 l/m 1,0 km/h (0 Bft) O-NO 67 0 min -0,7 C 6,1 C 1,6 km/h (1 Bft)
11.12.2019 12:30 4,3 C 5,0 C 4,3 C 6,4 C 6,4 C 2,1 C 70 % 71 % 1014,1 hPa 0,0 l/m 0,3 km/h (0 Bft) O-NO 67 0 min -0,7 C 6,4 C 0,0 km/h (0 Bft)
11.12.2019 12:35 4,4 C 5,0 C 4,5 C 6,6 C 6,6 C 2,2 C 70 % 73 % 1014,1 hPa 0,0 l/m 0,0 km/h (0 Bft) O-NO 67 0 min -0,6 C 6,6 C 0,0 km/h (0 Bft)
11.12.2019 12:40 4,7 C 5,0 C 4,6 C 6,8 C 6,8 C 2,1 C 70 % 72 % 1013,6 hPa 0,0 l/m 0,0 km/h (0 Bft) O-NO 67 0 min -0,3 C 6,8 C 0,0 km/h (0 Bft)
11.12.2019 12:45 4,7 C 5,0 C 4,6 C 6,8 C 6,8 C 2,1 C 70 % 70 % 1013,6 hPa 0,0 l/m 0,0 km/h (0 Bft) N-NO 22 0 min -0,3 C 6,8 C 0,0 km/h (0 Bft)
11.12.2019 12:50 4,8 C 5,0 C 4,9 C 7,0 C 7,0 C 2,2 C 69 % 70 % 1013,6 hPa 0,0 l/m 0,2 km/h (0 Bft) O 90 0 min -0,4 C 7,0 C 0,0 km/h (0 Bft)
11.12.2019 12:55 4,9 C 5,0 C 4,9 C 7,1 C 7,1 C 2,2 C 68 % 69 % 1013,6 hPa 0,0 l/m 0,0 km/h (0 Bft) O 90 0 min -0,5 C 7,1 C 0,0 km/h (0 Bft)
11.12.2019 13:00 5,1 C 5,0 C 4,9 C 7,3 C 7,3 C 2,2 C 68 % 69 % 1013,1 hPa 0,0 l/m 0,2 km/h (0 Bft) O-NO 67 0 min -0,3 C 7,3 C 0,0 km/h (0 Bft)
11.12.2019 13:05 5,2 C 5,0 C 5,1 C 7,3 C 7,3 C 2,1 C 67 % 68 % 1013,1 hPa 0,0 l/m 0,3 km/h (0 Bft) N-NW 337 0 min -0,4 C 7,3 C 3,9 km/h (1 Bft)
11.12.2019 13:10 5,2 C 5,0 C 5,1 C 7,1 C 7,1 C 1,9 C 66 % 69 % 1013,1 hPa 0,0 l/m 0,3 km/h (0 Bft) S 180 0 min -0,6 C 7,1 C 1,8 km/h (1 Bft)
11.12.2019 13:15 5,3 C 5,0 C 5,1 C 7,0 C 7,0 C 1,7 C 66 % 69 % 1013,1 hPa 0,0 l/m 0,5 km/h (0 Bft) S 180 0 min -0,5 C 7,0 C 2,6 km/h (1 Bft)
11.12.2019 13:20 5,5 C 5,0 C 5,1 C 6,8 C 6,8 C 1,3 C 65 % 69 % 1013,1 hPa 0,0 l/m 1,3 km/h (1 Bft) N 360 0 min -0,5 C 6,8 C 0,0 km/h (0 Bft)
11.12.2019 13:25 5,4 C 5,0 C 5,1 C 6,8 C 6,8 C 1,4 C 65 % 69 % 1013,1 hPa 0,0 l/m 1,4 km/h (1 Bft) S 180 0 min -0,6 C 6,8 C 4,3 km/h (1 Bft)
11.12.2019 13:30 5,5 C 5,1 C 5,1 C 6,7 C 6,7 C 1,2 C 64 % 69 % 1013,1 hPa 0,0 l/m 0,8 km/h (0 Bft) S-SW 202 0 min -0,8 C 6,7 C 0,0 km/h (0 Bft)
11.12.2019 13:35 5,6 C 5,1 C 5,1 C 6,6 C 6,6 C 1,0 C 65 % 69 % 1013,1 hPa 0,0 l/m 0,8 km/h (0 Bft) S-SW 202 0 min -0,4 C 6,6 C 1,6 km/h (1 Bft)
11.12.2019 13:40 5,5 C 5,1 C 5,0 C 6,5 C 6,5 C 1,0 C 64 % 69 % 1012,4 hPa 0,0 l/m 0,6 km/h (0 Bft) S-SW 202 0 min -0,8 C 6,5 C 1,9 km/h (1 Bft)
11.12.2019 13:45 5,5 C 5,1 C 5,0 C 6,4 C 6,4 C 0,9 C 64 % 69 % 1012,4 hPa 0,0 l/m 0,5 km/h (0 Bft) S-SW 202 0 min -0,8 C 6,4 C 1,8 km/h (1 Bft)
11.12.2019 13:50 5,5 C 5,1 C 5,0 C 6,4 C 6,4 C 0,9 C 64 % 69 % 1012,4 hPa 0,0 l/m 0,2 km/h (0 Bft) S-SW 202 0 min -0,8 C 6,4 C 0,0 km/h (0 Bft)
11.12.2019 13:55 5,6 C 5,1 C 4,9 C 6,4 C 6,4 C 0,8 C 64 % 69 % 1012,4 hPa 0,0 l/m 0,3 km/h (0 Bft) S-SW 202 0 min -0,7 C 6,4 C 0,0 km/h (0 Bft)
11.12.2019 14:00 5,6 C 5,1 C 4,9 C 6,2 C 6,2 C 0,6 C 64 % 69 % 1012,4 hPa 0,0 l/m 0,2 km/h (0 Bft) S-SW 202 0 min -0,7 C 6,2 C 0,0 km/h (0 Bft)
11.12.2019 14:05 5,5 C 5,1 C 4,9 C 6,1 C 6,1 C 0,6 C 64 % 69 % 1012,4 hPa 0,0 l/m 0,0 km/h (0 Bft) S-SW 202 0 min -0,8 C 6,1 C 0,0 km/h (0 Bft)
11.12.2019 14:10 5,5 C 5,1 C 4,8 C 6,0 C 6,0 C 0,5 C 64 % 69 % 1012,4 hPa 0,0 l/m 0,0 km/h (0 Bft) S-SW 202 0 min -0,8 C 6,0 C 0,0 km/h (0 Bft)
11.12.2019 14:15 5,5 C 5,1 C 4,7 C 5,9 C 5,9 C 0,4 C 64 % 70 % 1012,4 hPa 0,0 l/m 0,0 km/h (0 Bft) S-SW 202 0 min -0,8 C 5,9 C 0,0 km/h (0 Bft)
11.12.2019 14:20 5,5 C 5,1 C 4,7 C 5,8 C 5,8 C 0,3 C 64 % 71 % 1011,6 hPa 0,0 l/m 0,0 km/h (0 Bft) S-SW 202 0 min -0,8 C 5,8 C 0,0 km/h (0 Bft)
11.12.2019 14:25 5,5 C 5,1 C 4,5 C 5,8 C 5,8 C 0,3 C 64 % 72 % 1011,6 hPa 0,0 l/m 0,2 km/h (0 Bft) S-SW 202 0 min -0,8 C 5,8 C 0,0 km/h (0 Bft)
11.12.2019 14:30 5,4 C 5,1 C 4,5 C 5,6 C 5,6 C 0,2 C 65 % 72 % 1011,6 hPa 0,0 l/m 0,2 km/h (0 Bft) S-SW 202 0 min -0,6 C 5,6 C 0,0 km/h (0 Bft)
11.12.2019 14:35 5,3 C 5,1 C 4,5 C 5,6 C 5,6 C 0,3 C 65 % 73 % 1011,6 hPa 0,0 l/m 0,0 km/h (0 Bft) S-SW 202 0 min -0,7 C 5,6 C 0,0 km/h (0 Bft)
11.12.2019 14:40 5,2 C 5,2 C 4,3 C 5,5 C 5,5 C 0,3 C 66 % 73 % 1011,4 hPa 0,0 l/m 0,0 km/h (0 Bft) S-SW 202 0 min -0,6 C 5,5 C 0,0 km/h (0 Bft)
11.12.2019 14:45 5,3 C 5,2 C 4,3 C 5,4 C 5,4 C 0,1 C 66 % 73 % 1011,4 hPa 0,0 l/m 0,0 km/h (0 Bft) S-SW 202 0 min -0,5 C 5,4 C 0,0 km/h (0 Bft)
11.12.2019 14:50 5,2 C 5,2 C 4,3 C 5,3 C 5,3 C 0,1 C 66 % 73 % 1011,4 hPa 0,0 l/m 0,0 km/h (0 Bft) S-SW 202 0 min -0,6 C 5,3 C 0,0 km/h (0 Bft)
11.12.2019 14:55 5,1 C 5,2 C 4,2 C 5,2 C 5,2 C 0,1 C 66 % 73 % 1011,4 hPa 0,0 l/m 0,0 km/h (0 Bft) S-SW 202 0 min -0,7 C 5,2 C 1,6 km/h (1 Bft)
11.12.2019 15:00 5,1 C 5,2 C 4,0 C 5,1 C 5,1 C 0,0 C 66 % 74 % 1011,2 hPa 0,0 l/m 0,0 km/h (0 Bft) S-SW 202 0 min -0,7 C 5,1 C 0,0 km/h (0 Bft)
11.12.2019 15:05 5,0 C 5,2 C 3,9 C 5,0 C 5,0 C 0,0 C 66 % 74 % 1011,2 hPa 0,0 l/m 0,2 km/h (0 Bft) S-SW 202 0 min -0,8 C 5,0 C 0,0 km/h (0 Bft)
11.12.2019 15:10 4,9 C 5,2 C 3,8 C 4,9 C 4,8 C 0,0 C 66 % 74 % 1011,2 hPa 0,0 l/m 0,3 km/h (0 Bft) S-SW 202 0 min -0,9 C 4,8 C 1,6 km/h (1 Bft)
11.12.2019 15:15 4,8 C 5,2 C 3,8 C 4,8 C 4,8 C 0,0 C 66 % 73 % 1011,2 hPa 0,0 l/m 1,0 km/h (0 Bft) S-SW 202 0 min -1,0 C 4,8 C 2,1 km/h (1 Bft)
11.12.2019 15:20 4,7 C 5,2 C 3,7 C 4,7 C 4,7 C 0,0 C 66 % 73 % 1011,2 hPa 0,0 l/m 1,3 km/h (1 Bft) S-SW 202 0 min -1,1 C 4,7 C 0,0 km/h (0 Bft)
11.12.2019 15:25 4,7 C 5,2 C 3,6 C 4,7 C 4,6 C 0,0 C 66 % 74 % 1011,2 hPa 0,0 l/m 1,0 km/h (0 Bft) S-SW 202 0 min -1,1 C 4,6 C 0,0 km/h (0 Bft)
11.12.2019 15:30 4,5 C 5,2 C 3,4 C 4,5 C 4,4 C 0,0 C 66 % 74 % 1011,2 hPa 0,0 l/m 0,0 km/h (0 Bft) S-SW 202 0 min -1,3 C 4,4 C 0,0 km/h (0 Bft)
11.12.2019 15:35 4,4 C 5,2 C 3,2 C 4,3 C 4,2 C 0,0 C 66 % 75 % 1011,2 hPa 0,0 l/m 0,0 km/h (0 Bft) SW 225 0 min -1,4 C 4,2 C 0,0 km/h (0 Bft)
11.12.2019 15:40 4,3 C 5,2 C 3,1 C 4,1 C 3,8 C 0,0 C 67 % 75 % 1011,1 hPa 0,0 l/m 0,2 km/h (0 Bft) S-SW 202 0 min -1,3 C 3,8 C 0,0 km/h (0 Bft)
11.12.2019 15:45 4,2 C 5,2 C 3,0 C 4,0 C 3,6 C 0,0 C 67 % 76 % 1011,1 hPa 0,0 l/m 0,2 km/h (0 Bft) SW 225 0 min -1,4 C 3,6 C 1,8 km/h (1 Bft)
11.12.2019 15:50 4,0 C 5,3 C 2,8 C 3,8 C 3,4 C 0,0 C 68 % 76 % 1011,1 hPa 0,0 l/m 0,2 km/h (0 Bft) S-SW 202 0 min -1,4 C 3,4 C 0,0 km/h (0 Bft)
11.12.2019 15:55 3,9 C 5,4 C 2,7 C 3,7 C 3,2 C 0,0 C 68 % 77 % 1011,1 hPa 0,0 l/m 0,2 km/h (0 Bft) S-SW 202 0 min -1,5 C 3,2 C 1,6 km/h (1 Bft)
11.12.2019 16:00 3,6 C 5,4 C 2,5 C 3,4 C 3,0 C 0,0 C 69 % 77 % 1010,8 hPa 0,0 l/m 0,2 km/h (0 Bft) S-SW 202 0 min -1,5 C 3,0 C 0,0 km/h (0 Bft)
11.12.2019 16:05 3,6 C 5,4 C 2,4 C 3,4 C 2,9 C 0,0 C 69 % 78 % 1010,8 hPa 0,0 l/m 0,2 km/h (0 Bft) S-SW 202 0 min -1,5 C 2,9 C 0,0 km/h (0 Bft)
11.12.2019 16:10 3,3 C 5,4 C 2,2 C 3,1 C 2,6 C 0,0 C 70 % 78 % 1010,8 hPa 0,0 l/m 0,0 km/h (0 Bft) S-SW 202 0 min -1,6 C 2,6 C 0,0 km/h (0 Bft)
11.12.2019 16:15 3,2 C 5,4 C 2,2 C 3,0 C 2,5 C 0,0 C 70 % 78 % 1010,8 hPa 0,0 l/m 0,0 km/h (0 Bft) S-SW 202 0 min -1,7 C 2,5 C 0,0 km/h (0 Bft)
11.12.2019 16:20 3,0 C 5,4 C 2,1 C 2,8 C 2,3 C 0,0 C 70 % 78 % 1010,9 hPa 0,0 l/m 0,0 km/h (0 Bft) S-SW 202 0 min -1,9 C 2,3 C 0,0 km/h (0 Bft)
11.12.2019 16:25 2,9 C 5,4 C 1,9 C 2,6 C 2,1 C 0,0 C 71 % 79 % 1010,9 hPa 0,0 l/m 0,0 km/h (0 Bft) S-SW 202 0 min -1,8 C 2,1 C 0,0 km/h (0 Bft)
11.12.2019 16:30 2,8 C 5,4 C 1,8 C 2,5 C 2,0 C 0,0 C 72 % 79 % 1010,9 hPa 0,0 l/m 0,0 km/h (0 Bft) S-SW 202 0 min -1,7 C 2,0 C 0,0 km/h (0 Bft)
11.12.2019 16:35 2,7 C 5,4 C 1,7 C 2,5 C 2,0 C 0,0 C 72 % 79 % 1010,9 hPa 0,0 l/m 0,0 km/h (0 Bft) S-SW 202 0 min -1,8 C 2,0 C 0,0 km/h (0 Bft)
11.12.2019 16:40 2,6 C 5,4 C 1,7 C 2,4 C 1,9 C 0,0 C 72 % 79 % 1010,8 hPa 0,0 l/m 0,0 km/h (0 Bft) S-SW 202 0 min -1,9 C 1,9 C 0,0 km/h (0 Bft)
11.12.2019 16:45 2,5 C 5,4 C 1,6 C 2,3 C 1,9 C 0,0 C 73 % 80 % 1010,8 hPa 0,0 l/m 0,0 km/h (0 Bft) S-SW 202 0 min -1,8 C 1,9 C 0,0 km/h (0 Bft)
11.12.2019 16:50 2,4 C 5,4 C 1,5 C 2,2 C 1,8 C 0,0 C 73 % 80 % 1010,8 hPa 0,0 l/m 0,2 km/h (0 Bft) S-SW 202 0 min -1,9 C 1,8 C 0,0 km/h (0 Bft)
11.12.2019 16:55 2,3 C 5,4 C 1,5 C 2,1 C 1,6 C 0,0 C 73 % 80 % 1010,8 hPa 0,0 l/m 0,2 km/h (0 Bft) S-SW 202 0 min -2,0 C 1,6 C 0,0 km/h (0 Bft)
11.12.2019 17:00 2,3 C 5,4 C 1,5 C 2,0 C 1,4 C 0,0 C 73 % 80 % 1010,8 hPa 0,0 l/m 0,0 km/h (0 Bft) S-SW 202 0 min -2,0 C 1,4 C 0,0 km/h (0 Bft)
11.12.2019 17:05 2,1 C 5,4 C 1,3 C 1,9 C 1,4 C 0,0 C 74 % 80 % 1010,8 hPa 0,0 l/m 0,2 km/h (0 Bft) S-SW 202 0 min -2,0 C 1,4 C 1,6 km/h (1 Bft)
11.12.2019 17:10 2,0 C 5,4 C 1,2 C 1,8 C 1,4 C 0,0 C 74 % 81 % 1010,8 hPa 0,0 l/m 0,2 km/h (0 Bft) S-SW 202 0 min -2,1 C 1,4 C 0,0 km/h (0 Bft)
11.12.2019 17:15 2,0 C 5,4 C 1,1 C 1,8 C 1,3 C 0,0 C 74 % 81 % 1010,8 hPa 0,0 l/m 0,2 km/h (0 Bft) S-SW 202 0 min -2,1 C 1,3 C 0,0 km/h (0 Bft)
11.12.2019 17:20 1,8 C 5,4 C 1,0 C 1,6 C 1,3 C 0,0 C 75 % 81 % 1010,1 hPa 0,0 l/m 0,2 km/h (0 Bft) S-SW 202 0 min -2,1 C 1,3 C 0,0 km/h (0 Bft)
11.12.2019 17:25 1,9 C 5,4 C 1,0 C 1,7 C 1,2 C 0,0 C 75 % 81 % 1010,1 hPa 0,0 l/m 0,2 km/h (0 Bft) S-SW 202 0 min -2,1 C 1,2 C 0,0 km/h (0 Bft)
11.12.2019 17:30 1,7 C 5,5 C 0,9 C 1,5 C 1,0 C 0,0 C 75 % 81 % 1010,1 hPa 0,0 l/m 0,2 km/h (0 Bft) SW 225 0 min -2,2 C 1,0 C 0,0 km/h (0 Bft)
11.12.2019 17:35 1,6 C 5,5 C 0,9 C 1,4 C 0,9 C 0,0 C 76 % 81 % 1010,1 hPa 0,0 l/m 0,2 km/h (0 Bft) S-SW 202 0 min -2,2 C 0,9 C 0,0 km/h (0 Bft)
11.12.2019 17:40 1,6 C 5,5 C 0,8 C 1,3 C 0,7 C 0,0 C 76 % 82 % 1010,3 hPa 0,0 l/m 0,0 km/h (0 Bft) SW 225 0 min -2,2 C 0,7 C 0,0 km/h (0 Bft)
11.12.2019 17:45 1,5 C 5,5 C 0,7 C 1,2 C 0,6 C 0,0 C 77 % 82 % 1010,3 hPa 0,0 l/m 0,0 km/h (0 Bft) SW 225 0 min -2,1 C 0,6 C 0,0 km/h (0 Bft)
11.12.2019 17:50 1,5 C 5,5 C 0,7 C 1,1 C 0,4 C 0,0 C 77 % 82 % 1010,3 hPa 0,0 l/m 0,0 km/h (0 Bft) S-SW 202 0 min -2,1 C 0,4 C 0,0 km/h (0 Bft)
11.12.2019 17:55 1,3 C 5,5 C 0,7 C 1,0 C 0,4 C 0,0 C 77 % 82 % 1010,3 hPa 0,0 l/m 0,0 km/h (0 Bft) S-SW 202 0 min -2,3 C 0,4 C 0,0 km/h (0 Bft)
11.12.2019 18:00 1,2 C 5,5 C 0,6 C 0,9 C 0,2 C 0,0 C 77 % 82 % 1009,9 hPa 0,0 l/m 0,0 km/h (0 Bft) SW 225 0 min -2,4 C 0,2 C 0,0 km/h (0 Bft)
11.12.2019 18:05 1,3 C 5,5 C 0,6 C 0,9 C 0,2 C 0,0 C 78 % 82 % 1009,9 hPa 0,0 l/m 0,0 km/h (0 Bft) SW 225 0 min -2,1 C 0,2 C 0,0 km/h (0 Bft)
11.12.2019 18:10 1,2 C 5,5 C 0,5 C 0,9 C 0,2 C 0,0 C 78 % 83 % 1009,9 hPa 0,0 l/m 0,0 km/h (0 Bft) S-SW 202 0 min -2,2 C 0,2 C 0,0 km/h (0 Bft)
11.12.2019 18:15 1,1 C 5,5 C 0,4 C 0,8 C 0,1 C 0,0 C 79 % 83 % 1009,9 hPa 0,0 l/m 0,0 km/h (0 Bft) S-SW 202 0 min -2,1 C 0,1 C 0,0 km/h (0 Bft)
11.12.2019 18:20 1,1 C 5,5 C 0,3 C 0,7 C 0,0 C 0,0 C 79 % 83 % 1009,9 hPa 0,0 l/m 0,0 km/h (0 Bft) S-SW 202 0 min -2,1 C 0,0 C 0,0 km/h (0 Bft)
11.12.2019 18:25 0,9 C 5,5 C 0,2 C 0,6 C 0,0 C 0,0 C 79 % 83 % 1009,9 hPa 0,0 l/m 0,0 km/h (0 Bft) S-SW 202 0 min -2,3 C 0,0 C 0,0 km/h (0 Bft)
11.12.2019 18:30 0,9 C 5,5 C 0,2 C 0,5 C -0,2 C 0,0 C 79 % 83 % 1009,9 hPa 0,0 l/m 0,0 km/h (0 Bft) SW 225 0 min -2,3 C -0,2 C 0,0 km/h (0 Bft)
11.12.2019 18:35 0,8 C 5,5 C 0,1 C 0,4 C -0,3 C 0,0 C 79 % 83 % 1009,9 hPa 0,0 l/m 0,0 km/h (0 Bft) SW 225 0 min -2,4 C -0,3 C 0,0 km/h (0 Bft)
11.12.2019 18:40 0,7 C 5,5 C 0,0 C 0,3 C -0,4 C 0,0 C 80 % 84 % 1009,8 hPa 0,0 l/m 0,2 km/h (0 Bft) SW 225 0 min -2,3 C -0,4 C 2,1 km/h (1 Bft)
11.12.2019 18:45 0,7 C 5,5 C 0,0 C 0,3 C -0,4 C 0,0 C 80 % 84 % 1009,8 hPa 0,0 l/m 0,3 km/h (0 Bft) SW 225 0 min -2,3 C -0,4 C 0,0 km/h (0 Bft)
11.12.2019 18:50 0,7 C 5,5 C 0,0 C 0,3 C -0,4 C 0,0 C 80 % 84 % 1009,8 hPa 0,0 l/m 0,3 km/h (0 Bft) SW 225 0 min -2,3 C -0,4 C 0,0 km/h (0 Bft)
11.12.2019 18:55 0,5 C 5,5 C -0,1 C 0,2 C -0,5 C 0,0 C 80 % 84 % 1009,8 hPa 0,0 l/m 0,0 km/h (0 Bft) SW 225 0 min -2,5 C -0,5 C 0,0 km/h (0 Bft)
11.12.2019 19:00 0,4 C 5,5 C -0,1 C 0,0 C -0,7 C 0,0 C 80 % 84 % 1009,6 hPa 0,0 l/m 0,0 km/h (0 Bft) SW 225 0 min -2,6 C -0,7 C 0,0 km/h (0 Bft)
11.12.2019 19:05 0,5 C 5,5 C -0,2 C 0,1 C -0,8 C 0,0 C 81 % 84 % 1009,6 hPa 0,0 l/m 0,0 km/h (0 Bft) SW 225 0 min -2,4 C -0,8 C 0,0 km/h (0 Bft)
11.12.2019 19:10 0,3 C 5,5 C -0,2 C -0,1 C -0,8 C 0,0 C 81 % 84 % 1009,6 hPa 0,0 l/m 0,0 km/h (0 Bft) SW 225 0 min -2,6 C -0,8 C 0,0 km/h (0 Bft)
11.12.2019 19:15 0,3 C 5,5 C -0,2 C -0,1 C -0,8 C 0,0 C 81 % 84 % 1009,6 hPa 0,0 l/m 0,0 km/h (0 Bft) SW 225 0 min -2,6 C -0,8 C 0,0 km/h (0 Bft)
11.12.2019 19:20 0,3 C 5,5 C -0,3 C -0,1 C -0,8 C 0,0 C 81 % 84 % 1009,4 hPa 0,0 l/m 0,0 km/h (0 Bft) SW 225 0 min -2,6 C -0,8 C 0,0 km/h (0 Bft)
11.12.2019 19:25 0,3 C 5,5 C -0,3 C 0,0 C -0,7 C 0,0 C 81 % 84 % 1009,4 hPa 0,0 l/m 0,0 km/h (0 Bft) S-SW 202 0 min -2,6 C -0,7 C 0,0 km/h (0 Bft)
11.12.2019 19:30 0,2 C 5,5 C -0,3 C -0,1 C -0,6 C 0,0 C 82 % 84 % 1009,4 hPa 0,0 l/m 0,0 km/h (0 Bft) S-SW 202 0 min -2,5 C -0,6 C 0,0 km/h (0 Bft)
11.12.2019 19:35 0,2 C 5,5 C -0,3 C 0,0 C -0,5 C 0,0 C 82 % 84 % 1009,4 hPa 0,0 l/m 0,0 km/h (0 Bft) S-SW 202 0 min -2,5 C -0,5 C 0,0 km/h (0 Bft)
11.12.2019 19:40 0,1 C 5,5 C -0,3 C -0,1 C -0,5 C 0,0 C 82 % 84 % 1009,4 hPa 0,0 l/m 0,0 km/h (0 Bft) S-SW 202 0 min -2,6 C -0,5 C 0,0 km/h (0 Bft)
11.12.2019 19:45 0,1 C 5,5 C -0,3 C -0,1 C -0,6 C 0,0 C 82 % 84 % 1009,4 hPa 0,0 l/m 0,0 km/h (0 Bft) SW 225 0 min -2,6 C -0,6 C 0,0 km/h (0 Bft)
11.12.2019 19:50 0,0 C 5,5 C -0,3 C -0,2 C -0,6 C 0,0 C 82 % 84 % 1009,4 hPa 0,0 l/m 0,0 km/h (0 Bft) S-SW 202 0 min -2,7 C -0,6 C 0,0 km/h (0 Bft)
11.12.2019 19:55 0,0 C 5,5 C -0,3 C -0,2 C -0,6 C 0,0 C 82 % 84 % 1009,4 hPa 0,0 l/m 0,0 km/h (0 Bft) S-SW 202 0 min -2,7 C -0,6 C 0,0 km/h (0 Bft)
11.12.2019 20:00 0,0 C 5,5 C -0,4 C -0,2 C -0,5 C 0,0 C 82 % 84 % 1009,2 hPa 0,0 l/m 0,0 km/h (0 Bft) S-SW 202 0 min -2,7 C -0,5 C 0,0 km/h (0 Bft)
11.12.2019 20:05 0,1 C 5,5 C -0,3 C -0,1 C -0,5 C 0,0 C 82 % 85 % 1009,2 hPa 0,0 l/m 0,0 km/h (0 Bft) SW 225 0 min -2,6 C -0,5 C 0,0 km/h (0 Bft)
11.12.2019 20:10 0,1 C 5,5 C -0,2 C -0,1 C -0,5 C 0,0 C 83 % 85 % 1009,2 hPa 0,0 l/m 0,0 km/h (0 Bft) SW 225 0 min -2,4 C -0,5 C 0,0 km/h (0 Bft)
11.12.2019 20:15 0,0 C 5,5 C -0,2 C -0,1 C -0,4 C 0,0 C 83 % 85 % 1009,2 hPa 0,0 l/m 0,0 km/h (0 Bft) SW 225 0 min -2,5 C -0,4 C 0,0 km/h (0 Bft)
11.12.2019 20:20 0,0 C 5,5 C -0,2 C -0,1 C -0,3 C 0,0 C 83 % 85 % 1009,3 hPa 0,0 l/m 0,0 km/h (0 Bft) SW 225 0 min -2,5 C -0,3 C 0,0 km/h (0 Bft)
11.12.2019 20:25 0,0 C 5,5 C -0,1 C -0,1 C -0,2 C 0,0 C 83 % 85 % 1009,3 hPa 0,0 l/m 0,0 km/h (0 Bft) SW 225 0 min -2,5 C -0,2 C 0,0 km/h (0 Bft)
11.12.2019 20:30 0,0 C 5,5 C -0,1 C -0,1 C -0,3 C 0,0 C 83 % 85 % 1009,3 hPa 0,0 l/m 0,0 km/h (0 Bft) SW 225 0 min -2,5 C -0,3 C 0,0 km/h (0 Bft)
11.12.2019 20:35 0,0 C 5,5 C -0,1 C -0,1 C -0,3 C 0,0 C 83 % 84 % 1009,3 hPa 0,0 l/m 0,0 km/h (0 Bft) SW 225 0 min -2,5 C -0,3 C 0,0 km/h (0 Bft)
11.12.2019 20:40 0,0 C 5,4 C -0,1 C -0,1 C -0,2 C 0,0 C 83 % 84 % 1008,9 hPa 0,0 l/m 0,0 km/h (0 Bft) SW 225 0 min -2,5 C -0,2 C 0,0 km/h (0 Bft)
11.12.2019 20:45 0,0 C 5,4 C -0,1 C -0,1 C -0,2 C 0,0 C 83 % 84 % 1008,9 hPa 0,0 l/m 0,0 km/h (0 Bft) SW 225 0 min -2,5 C -0,2 C 0,0 km/h (0 Bft)
11.12.2019 20:50 0,0 C 5,4 C -0,1 C 0,0 C -0,1 C 0,0 C 83 % 84 % 1008,9 hPa 0,0 l/m 0,0 km/h (0 Bft) S-SW 202 0 min -2,5 C -0,1 C 0,0 km/h (0 Bft)
11.12.2019 20:55 0,0 C 5,4 C -0,1 C 0,0 C 0,0 C 0,0 C 83 % 84 % 1008,9 hPa 0,0 l/m 0,0 km/h (0 Bft) S-SW 202 0 min -2,5 C 0,0 C 0,0 km/h (0 Bft)
11.12.2019 21:00 0,0 C 5,4 C -0,1 C 0,0 C -0,1 C 0,0 C 83 % 84 % 1008,9 hPa 0,0 l/m 0,0 km/h (0 Bft) SW 225 0 min -2,5 C -0,1 C 0,0 km/h (0 Bft)
11.12.2019 21:05 0,1 C 5,5 C -0,1 C 0,0 C -0,1 C 0,0 C 83 % 84 % 1008,9 hPa 0,0 l/m 0,2 km/h (0 Bft) SW 225 0 min -2,4 C -0,1 C 0,0 km/h (0 Bft)
11.12.2019 21:10 0,0 C 5,5 C -0,2 C -0,1 C -0,4 C 0,0 C 83 % 84 % 1008,9 hPa 0,0 l/m 0,2 km/h (0 Bft) SW 225 0 min -2,5 C -0,4 C 0,0 km/h (0 Bft)
11.12.2019 21:15 0,1 C 5,5 C -0,2 C -0,1 C -0,5 C 0,0 C 84 % 85 % 1008,9 hPa 0,0 l/m 0,0 km/h (0 Bft) SW 225 0 min -2,3 C -0,5 C 0,0 km/h (0 Bft)
11.12.2019 21:20 0,1 C 5,5 C -0,1 C -0,1 C -0,5 C 0,0 C 84 % 85 % 1008,9 hPa 0,0 l/m 0,0 km/h (0 Bft) SW 225 0 min -2,3 C -0,5 C 0,0 km/h (0 Bft)
11.12.2019 21:25 0,1 C 5,4 C -0,1 C -0,1 C -0,4 C 0,0 C 84 % 85 % 1008,9 hPa 0,0 l/m 0,0 km/h (0 Bft) S-SW 202 0 min -2,3 C -0,4 C 0,0 km/h (0 Bft)
11.12.2019 21:30 0,0 C 5,5 C 0,0 C -0,1 C -0,2 C 0,0 C 84 % 85 % 1008,9 hPa 0,0 l/m 0,0 km/h (0 Bft) S-SW 202 0 min -2,4 C -0,2 C 0,0 km/h (0 Bft)
11.12.2019 21:35 0,0 C 5,5 C 0,0 C -0,1 C -0,2 C 0,0 C 84 % 85 % 1008,9 hPa 0,0 l/m 0,0 km/h (0 Bft) S-SW 202 0 min -2,4 C -0,2 C 0,0 km/h (0 Bft)
11.12.2019 21:40 0,1 C 5,4 C 0,1 C 0,1 C 0,0 C 0,0 C 84 % 85 % 1008,9 hPa 0,0 l/m 0,0 km/h (0 Bft) S-SW 202 0 min -2,3 C 0,0 C 0,0 km/h (0 Bft)
11.12.2019 21:45 0,1 C 5,4 C 0,2 C 0,2 C 0,2 C 0,1 C 84 % 85 % 1008,9 hPa 0,0 l/m 0,0 km/h (0 Bft) SW 225 0 min -2,3 C 0,2 C 0,0 km/h (0 Bft)
11.12.2019 21:50 0,3 C 5,3 C 0,3 C 0,3 C 0,3 C 0,0 C 84 % 85 % 1008,9 hPa 0,0 l/m 0,5 km/h (0 Bft) SW 225 0 min -2,1 C 0,3 C 0,0 km/h (0 Bft)
11.12.2019 21:55 0,3 C 5,3 C 0,4 C 0,5 C 0,5 C 0,2 C 84 % 85 % 1008,9 hPa 0,0 l/m 1,6 km/h (1 Bft) SW 225 0 min -2,1 C 0,5 C 8,5 km/h (2 Bft)
11.12.2019 22:00 0,7 C 5,3 C 0,7 C 0,6 C 0,3 C 0,0 C 85 % 84 % 1008,8 hPa 0,0 l/m 3,1 km/h (1 Bft) SO 135 0 min -1,5 C 0,3 C 6,4 km/h (2 Bft)
11.12.2019 22:05 0,9 C 5,3 C 1,0 C 0,7 C 0,3 C 0,0 C 85 % 84 % 1008,8 hPa 0,0 l/m 4,0 km/h (1 Bft) SO 135 0 min -1,3 C 0,3 C 11,6 km/h (2 Bft)
11.12.2019 22:10 1,3 C 5,3 C 1,1 C 1,1 C 0,7 C 0,0 C 84 % 84 % 1008,8 hPa 0,0 l/m 3,5 km/h (1 Bft) SO 135 0 min -1,1 C 0,7 C 6,1 km/h (2 Bft)
11.12.2019 22:15 1,5 C 5,4 C 1,2 C 1,5 C 1,4 C 0,0 C 84 % 84 % 1008,8 hPa 0,0 l/m 2,4 km/h (1 Bft) O-SO 112 0 min -0,9 C 1,4 C 3,4 km/h (1 Bft)
11.12.2019 22:20 1,6 C 5,4 C 1,3 C 1,5 C 1,4 C 0,0 C 84 % 84 % 1008,6 hPa 0,0 l/m 2,3 km/h (1 Bft) S-SO 157 0 min -0,8 C 1,4 C 6,4 km/h (2 Bft)
11.12.2019 22:25 1,6 C 5,4 C 1,3 C 1,5 C 1,2 C 0,0 C 84 % 84 % 1008,6 hPa 0,0 l/m 2,7 km/h (1 Bft) S 180 0 min -0,8 C 1,2 C 2,1 km/h (1 Bft)
11.12.2019 22:30 1,7 C 5,4 C 1,3 C 1,3 C 0,6 C 0,0 C 84 % 84 % 1008,6 hPa 0,0 l/m 3,5 km/h (1 Bft) SO 135 0 min -0,7 C 0,6 C 2,9 km/h (1 Bft)
11.12.2019 22:35 1,7 C 5,5 C 1,2 C 1,4 C 0,7 C 0,0 C 83 % 84 % 1008,6 hPa 0,0 l/m 3,2 km/h (1 Bft) S-SO 157 0 min -0,9 C 0,7 C 5,0 km/h (1 Bft)
11.12.2019 22:40 1,7 C 5,5 C 1,1 C 1,5 C 1,0 C 0,0 C 83 % 85 % 1008,4 hPa 0,0 l/m 1,4 km/h (1 Bft) S 180 0 min -0,9 C 1,0 C 2,1 km/h (1 Bft)
11.12.2019 22:45 1,6 C 5,5 C 1,1 C 1,4 C 0,9 C 0,0 C 83 % 86 % 1008,4 hPa 0,0 l/m 0,6 km/h (0 Bft) S-SO 157 0 min -1,0 C 0,9 C 0,0 km/h (0 Bft)
11.12.2019 22:50 1,6 C 5,5 C 1,0 C 1,3 C 0,8 C 0,0 C 83 % 86 % 1008,4 hPa 0,0 l/m 0,6 km/h (0 Bft) S-SO 157 0 min -1,0 C 0,8 C 0,0 km/h (0 Bft)
11.12.2019 22:55 1,6 C 5,5 C 0,9 C 1,3 C 0,8 C 0,0 C 83 % 87 % 1008,4 hPa 0,0 l/m 0,5 km/h (0 Bft) SW 225 0 min -1,0 C 0,8 C 0,0 km/h (0 Bft)
11.12.2019 23:00 1,5 C 5,5 C 0,9 C 1,2 C 0,7 C 0,0 C 83 % 87 % 1008,4 hPa 0,0 l/m 0,0 km/h (0 Bft) SW 225 0 min -1,1 C 0,7 C 0,0 km/h (0 Bft)
11.12.2019 23:05 1,4 C 5,5 C 0,8 C 1,1 C 0,6 C 0,0 C 83 % 87 % 1008,4 hPa 0,0 l/m 0,0 km/h (0 Bft) SW 225 0 min -1,2 C 0,6 C 0,0 km/h (0 Bft)
11.12.2019 23:10 1,5 C 5,5 C 0,8 C 1,2 C 0,6 C 0,0 C 84 % 87 % 1008,4 hPa 0,0 l/m 0,0 km/h (0 Bft) SW 225 0 min -0,9 C 0,6 C 0,0 km/h (0 Bft)
11.12.2019 23:15 1,4 C 5,5 C 0,7 C 1,1 C 0,6 C 0,0 C 84 % 87 % 1008,4 hPa 0,0 l/m 0,0 km/h (0 Bft) SO 135 0 min -1,0 C 0,6 C 0,0 km/h (0 Bft)
11.12.2019 23:20 1,3 C 5,5 C 0,8 C 1,1 C 0,6 C 0,0 C 84 % 88 % 1008,5 hPa 0,7 l/m 0,0 km/h (0 Bft) SO 135 0 min -1,1 C 0,6 C 0,0 km/h (0 Bft)
11.12.2019 23:25 1,3 C 5,5 C 0,8 C 1,1 C 0,6 C 0,0 C 84 % 88 % 1008,5 hPa 0,0 l/m 0,0 km/h (0 Bft) SO 135 0 min -1,1 C 0,6 C 0,0 km/h (0 Bft)
11.12.2019 23:30 1,3 C 5,5 C 0,8 C 1,1 C 0,6 C 0,0 C 84 % 88 % 1008,5 hPa 0,0 l/m 0,0 km/h (0 Bft) SO 135 0 min -1,1 C 0,6 C 0,0 km/h (0 Bft)
11.12.2019 23:35 1,3 C 5,5 C 0,9 C 1,1 C 0,7 C 0,0 C 84 % 88 % 1008,5 hPa 0,0 l/m 0,0 km/h (0 Bft) O-SO 112 0 min -1,1 C 0,7 C 0,0 km/h (0 Bft)
11.12.2019 23:40 1,5 C 5,5 C 1,0 C 1,3 C 0,8 C 0,0 C 85 % 88 % 1008,6 hPa 0,0 l/m 0,5 km/h (0 Bft) S 180 0 min -0,7 C 0,8 C 2,3 km/h (1 Bft)
11.12.2019 23:45 1,5 C 5,5 C 1,0 C 1,3 C 0,8 C 0,0 C 85 % 89 % 1008,6 hPa 0,0 l/m 1,1 km/h (1 Bft) S 180 0 min -0,7 C 0,8 C 3,2 km/h (1 Bft)
11.12.2019 23:50 1,5 C 5,5 C 1,1 C 1,3 C 0,8 C 0,0 C 85 % 89 % 1008,6 hPa 0,0 l/m 1,4 km/h (1 Bft) SW 225 0 min -0,7 C 0,8 C 0,0 km/h (0 Bft)
11.12.2019 23:55 1,5 C 5,5 C 1,1 C 1,3 C 0,8 C 0,0 C 86 % 89 % 1008,6 hPa 0,0 l/m 1,0 km/h (0 Bft) SW 225 0 min -0,6 C 0,8 C 0,0 km/h (0 Bft)
_ Min-Zeit 06:50 10:50 03:15 06:50 03:20 00:00 13:30 13:05 22:40 - 00:35 - - - 03:15 03:20 00:05
Minimum _ -1,0 C 5,0 C -2,0 C -1,3 C -2,2 C 0,0 C 64 % 68 % 1008,4 hPa - 0,0 km/h (0 Bft) - - - -4,0 C -2,2 C 0,0 km/h (0 Bft)
_ Max-Zeit 13:35 00:20 13:05 13:00 13:00 11:30 23:55 23:45 00:00 23:20 22:05 - - 00:00 12:40 13:00 22:05
Maximum _ 5,6 C 5,9 C 5,1 C 7,3 C 7,3 C 2,4 C 86 % 89 % 1023,2 hPa 0,7 l/m 4,0 km/h
SO (1 Bft)
- - 0 min -0,3 C 7,3 C 11,6 km/h
SO (2 Bft)
Durchschnitt _ 1,3 C 5,4 C 0,7 C 1,4 C 1,0 C 0,3 C 78 % 82 % 1014,5 hPa #0,7 l/m 0,3 km/h (0 Bft) SO - #0 min. -2,2 C 1,0 C 0,6 km/h (0 Bft)
2019 www.wetterstation-wechselburg.de